[[{"header":{"parameterUnit":"m.s-1","parameterCategory":1,"la1":30.2991,"la2":30.254,"lo1":-89.0895,"lo2":-89.0444,"dy":0.0017,"dx":0.0017,"nx":28,"ny":28,"refTime":"2024-10-04T03:00:00:Z","depth":0,"parameterNumber":2,"parameterNumberName":"U-component_of_WINDS"},"data":[0,0,0,0,0,0,0,0,0,0,0,0,0,0,0,0,0,0,0,0,0,0,0,0,0,0,0,0,0,0,0,0,0,0,0,0,0,0,0,0,0,0,0,0,0,0,0,0,0,0,0,0,0,0,0,0,0,0,-4.4998,-4.5,0,-4.5144,-4.5146,-4.5147,-4.5046,-4.5041,-4.5037,-4.5032,-4.5184,-4.5192,-4.52,0,0,0,0,0,0,0,0,0,0,0,0,0,-4.4633,-4.464,-4.4998,-4.5,-4.5002,-4.5144,-4.5146,-4.5148,-4.5047,-4.5041,-4.5035,-4.503,-4.5181,-4.5191,-4.5201,0,0,0,0,0,0,0,0,0,0,0,0,0,-4.4787,-4.4642,-4.4998,-4.4968,-4.4967,-4.5143,-4.5146,-4.5148,-4.5048,-4.5041,-4.5034,-4.5028,-4.5178,-4.519,-4.5202,-4.5416,0,0,-4.524,-4.5246,0,0,0,0,0,0,0,0,-4.4778,-4.48,-4.4971,-4.4971,-4.497,-4.507,-4.5072,-4.5238,-4.5049,-4.5017,-4.5032,-4.5024,-4.5152,-4.5166,-4.5208,-4.5423,-4.543,-4.5241,-4.5249,-4.5254,-4.5258,0,0,0,0,0,0,0,-4.4767,-4.4793,-4.5056,-4.4973,-4.4973,-4.4948,-4.4962,-4.5103,-4.5121,-4.502,-4.5012,-4.5031,-4.515,-4.5196,-4.5211,-4.5432,-4.5241,-4.5252,-4.526,-4.5265,-4.5829,-4.5836,0,0,0,0,0,0,-4.4759,-4.4785,-4.5051,-4.506,-4.4855,-4.496,-4.4976,-4.5045,-4.5119,-4.5124,-4.5037,-4.5026,-4.5179,-4.5197,-4.5216,-4.5471,-4.5254,-4.5266,-4.5273,-4.5822,-4.5831,-4.5839,0,0,0,0,0,0,-4.4752,-4.4784,-4.5045,-4.4921,-4.4952,-4.4974,-4.5051,-4.5051,-4.5097,-4.5132,-4.5135,-4.5081,-4.5174,-4.5198,-4.5367,-4.5475,-4.5271,-4.5283,-4.5813,-4.5824,-4.5835,-4.5984,0,0,0,0,0,0,-4.4742,-4.4782,-4.4863,-4.4923,-4.4959,-4.5194,-4.5058,-4.5059,-4.5119,-4.5106,-4.5175,-4.5179,-4.517,-4.5349,-4.5379,-4.5488,-4.5292,-4.5803,-4.5818,-4.5831,-4.5969,-4.5999,-4.6024,0,0,0,0,0,-4.4729,-4.49,-4.4868,-4.4901,-4.5062,-4.5201,-4.5221,-4.5207,-4.5128,-4.521,-4.5232,-4.5177,-4.5458,-4.5367,-4.54,-4.5515,-4.5796,-4.5814,-4.583,-4.5957,-4.5993,-4.6023,0,0,0,0,0,0,-4.4854,-4.4908,-4.4873,-4.5068,-4.513,-4.5183,-4.5286,-4.5245,-4.5332,-4.5316,-4.5295,-4.5311,-4.5488,-4.5518,-4.5415,-4.5725,-4.5615,-4.5639,-4.57,-4.5734,-4.5761,-4.5751,-4.5303,0,0,0,0,0,-4.4903,-4.5012,-4.5053,-4.5222,-4.5254,-4.5265,-4.5325,-4.5309,-4.5373,-4.5399,-4.5433,-4.5498,-4.56,-4.5669,-4.5765,-4.5972,-4.5986,-4.6068,-4.6095,-4.6117,-4.6139,-4.6251,-4.6288,-4.5895,-4.5894,-4.5894,0,0,-4.5009,-4.5051,-4.5121,-4.5248,-4.5294,-4.5406,-4.5288,-4.5413,-4.5496,-4.5418,-4.5579,-4.5606,-4.5677,-4.5866,-4.5951,-4.5896,-4.625,-4.6139,-4.6156,-4.6166,-4.6272,-4.6309,-4.6342,-4.5906,-4.5904,-4.5902,0,0,-4.5257,-4.53,-4.5445,-4.5494,-4.5565,-4.557,-4.5605,-4.5664,-4.5679,-4.584,-4.5784,-4.5882,-4.606,-4.6112,-4.6162,-4.6429,-4.6382,-4.6461,-4.6605,-4.6714,-4.6745,-4.6772,-4.6868,-4.6902,-4.6482,-4.6483,-4.6483,0,-4.5379,-4.5546,-4.5525,-4.5654,-4.5711,-4.5644,-4.579,-4.5838,-4.5938,-4.5979,-4.5916,-4.6137,-4.618,-4.638,-4.6445,-4.6487,-4.6527,-4.6454,-4.6742,-4.6769,-4.6794,-4.6885,-4.6921,-4.6492,-4.6491,-4.649,-4.6489,0,-4.5692,-4.5809,-4.5917,-4.6014,-4.6083,-4.622,-4.622,-4.6293,-4.627,-4.6282,-4.6447,-4.6495,-4.66,-4.6646,-4.6625,-4.6844,-4.6808,-4.6744,-4.6633,-4.6841,-4.6927,-4.6961,-4.6505,-4.6502,-4.6499,-4.6497,0,0,-4.6026,-4.6107,-4.6148,-4.619,-4.6263,-4.6353,-4.6486,-4.6588,-4.6651,-4.6721,-4.6833,-4.6984,-4.6925,-4.6982,-4.6966,-4.7062,-4.727,-4.6986,-4.6987,-4.7038,-4.7514,-4.7562,-4.7603,-4.7238,-4.7245,-4.725,-4.7508,0,-4.6279,-4.6511,-4.6495,-4.6714,-4.6822,-4.6759,-4.6875,-4.6932,-4.6947,-4.704,-4.7057,-4.7164,-4.7078,-4.7112,-4.7204,-4.7226,-4.7366,-4.7206,-4.7343,-4.7348,-4.7329,-4.7648,-4.7699,-4.7941,-4.7542,-4.7547,-4.7551,0,-4.6606,-4.6686,-4.6915,-4.6971,-4.7015,-4.712,-4.7211,-4.7301,-4.7365,-4.7369,-4.7432,-4.74,-4.7535,-4.7419,-4.7605,-4.7497,-4.7552,-4.7571,-4.758,-4.7593,-4.7463,-4.767,-4.8017,-4.8054,-4.7603,-4.7599,-4.7596,0,-4.6826,-4.6992,-4.715,-4.7189,-4.7257,-4.7332,-4.7365,-4.7421,-4.7483,-4.7563,-4.7602,-4.7697,-4.775,-4.7824,-4.7819,-4.7735,-4.8008,-4.7892,-4.8016,-4.8017,-4.8078,-4.8074,-4.8439,-4.8112,-4.8111,-4.811,-4.811,0,-4.7111,-4.7254,-4.725,-4.7348,-4.7506,-4.7486,-4.7644,-4.7668,-4.7718,-4.782,-4.7771,-4.7867,-4.7853,-4.795,-4.7947,-4.8102,-4.8126,-4.8133,-4.8131,-4.8138,-4.8138,-4.8175,-4.8158,-4.812,-4.8118,-4.8116,-4.8114,0,-4.7385,-4.7388,-4.7557,-4.7607,-4.7623,-4.7738,-4.7781,-4.7874,-4.7883,-4.8012,-4.8041,-4.8058,-4.8169,-4.817,-4.8298,-4.8295,-4.8485,-4.8463,-4.8464,-4.846,-4.8584,-4.8573,-4.8987,-4.9041,-4.8678,-4.8681,-4.8684,0,-4.7567,-4.7676,-4.7737,-4.7801,-4.7837,-4.7941,-4.8003,-4.7988,-4.8055,-4.8135,-4.8218,-4.8324,-4.8409,-4.859,-4.8613,-4.8711,-4.8691,-4.883,-4.8706,-4.871,-4.8694,-4.8688,-4.8699,-4.8855,-4.8859,-4.8862,-4.8865,0,-4.789,-4.7886,-4.7977,-4.8069,-4.8145,-4.8217,-4.8283,-4.8338,-4.833,-4.8408,-4.852,-4.8586,-4.8715,-4.8822,-4.8916,-4.8949,-4.8907,-4.8903,-4.8937,-4.8947,-4.8943,-4.8947,-4.8531,-4.8894,-4.8891,-4.8889,-4.8887,-4.8886,-4.8124,-4.8217,-4.8275,-4.8378,-4.8426,-4.8489,-4.8578,-4.8598,-4.8691,-4.8795,-4.878,-4.8906,-4.8966,-4.9087,-4.9129,-4.9228,-4.918,-4.9229,-4.9241,-4.9254,-4.9268,-4.8926,-4.9245,-4.9244,-4.9243,-4.9242,-4.9242,0,-4.8445,-4.8479,-4.8573,-4.8667,-4.8748,-4.8699,-4.8769,-4.8841,-4.8952,-4.9011,-4.9094,-4.9224,-4.9326,-4.9358,-4.9457,-4.953,-4.9513,-4.9557,-4.9552,-4.956,-4.9305,-4.9266,-4.9569,-4.9569,-4.9569,-4.9569,-4.9569,-4.9569,-4.8622,-4.8777,-4.8779,-4.8957,-4.8989,-4.9111,-4.9156,-4.9213,-4.926,-4.9407,-4.9491,-4.951,-4.9558,-4.9661,-4.9753,-4.9759,-4.9799,-4.9851,-4.985,-4.9611,-4.9578,-4.9547,-4.951,-4.986,-4.986,-5.0097,-5.0099,-5.0101]},{"header":{"parameterUnit":"m.s-1","parameterCategory":1,"la1":30.2991,"la2":30.254,"lo1":-89.0895,"lo2":-89.0444,"dy":0.0017,"dx":0.0017,"nx":28,"ny":28,"refTime":"2024-10-04T03:00:00:Z","depth":0,"parameterNumber":3,"parameterNumberName":"V-component_of_WINDS"},"data":[0,0,0,0,0,0,0,0,0,0,0,0,0,0,0,0,0,0,0,0,0,0,0,0,0,0,0,0,0,0,0,0,0,0,0,0,0,0,0,0,0,0,0,0,0,0,0,0,0,0,0,0,0,0,0,0,0,0,-0.0228,-0.0229,0,-0.0294,-0.0295,-0.0295,-0.0345,-0.0346,-0.0346,-0.0347,-0.0418,-0.0419,-0.042,0,0,0,0,0,0,0,0,0,0,0,0,0,-0.0147,-0.0148,-0.0228,-0.0229,-0.023,-0.0294,-0.0295,-0.0296,-0.0345,-0.0346,-0.0346,-0.0347,-0.0417,-0.0419,-0.0421,0,0,0,0,0,0,0,0,0,0,0,0,0,-0.0194,-0.0148,-0.0228,-0.0262,-0.0266,-0.0293,-0.0295,-0.0296,-0.0345,-0.0346,-0.0347,-0.0347,-0.0416,-0.0419,-0.0421,-0.0421,0,0,-0.0427,-0.0428,0,0,0,0,0,0,0,0,-0.0191,-0.0197,-0.0256,-0.026,-0.0264,-0.0312,-0.0292,-0.0338,-0.0345,-0.0315,-0.0347,-0.0348,-0.0382,-0.0387,-0.0398,-0.0424,-0.0427,-0.0428,-0.0429,-0.043,-0.0431,0,0,0,0,0,0,0,-0.0188,-0.0195,-0.0254,-0.0257,-0.0262,-0.0275,-0.0282,-0.0301,-0.0344,-0.0318,-0.0322,-0.0329,-0.0384,-0.0396,-0.04,-0.0428,-0.0428,-0.043,-0.0431,-0.0432,-0.0455,-0.0455,0,0,0,0,0,0,-0.0179,-0.0192,-0.0252,-0.0256,-0.0229,-0.0275,-0.0284,-0.0296,-0.0344,-0.0352,-0.0328,-0.0331,-0.0392,-0.0398,-0.0403,-0.0405,-0.043,-0.0432,-0.0433,-0.0456,-0.0455,-0.0454,0,0,0,0,0,0,-0.0177,-0.0184,-0.0249,-0.0225,-0.0234,-0.0276,-0.0289,-0.0297,-0.0309,-0.0352,-0.036,-0.0332,-0.0393,-0.04,-0.0415,-0.0409,-0.0433,-0.0435,-0.0457,-0.0456,-0.0455,-0.041,0,0,0,0,0,0,-0.0175,-0.0183,-0.0184,-0.0224,-0.0235,-0.026,-0.0289,-0.0298,-0.0312,-0.0316,-0.0357,-0.0365,-0.0394,-0.0412,-0.0417,-0.0412,-0.0437,-0.0458,-0.0456,-0.0455,-0.0413,-0.0408,-0.0404,0,0,0,0,0,-0.0172,-0.017,-0.0183,-0.019,-0.0237,-0.026,-0.0266,-0.0298,-0.0311,-0.0312,-0.0339,-0.0364,-0.0408,-0.0413,-0.042,-0.0415,-0.0458,-0.0457,-0.0455,-0.0415,-0.0409,-0.0404,0,0,0,0,0,0,-0.0129,-0.0176,-0.0192,-0.0203,-0.0226,-0.0268,-0.0271,-0.0291,-0.0314,-0.0317,-0.0357,-0.0365,-0.0377,-0.0397,-0.0402,-0.0416,-0.0436,-0.0436,-0.0403,-0.0398,-0.0393,-0.0389,-0.0438,0,0,0,0,0,-0.012,-0.0135,-0.0175,-0.0181,-0.0192,-0.0229,-0.024,-0.0262,-0.029,-0.0301,-0.0329,-0.0355,-0.0375,-0.0387,-0.0408,-0.0415,-0.0425,-0.0415,-0.041,-0.0407,-0.0407,-0.0411,-0.0407,-0.0449,-0.0449,-0.0449,0,0,-0.0104,-0.0131,-0.0138,-0.0173,-0.0194,-0.0209,-0.0237,-0.0252,-0.0263,-0.0303,-0.0319,-0.034,-0.0372,-0.0383,-0.0389,-0.0401,-0.0396,-0.0405,-0.0401,-0.0403,-0.0409,-0.0405,-0.0401,-0.0448,-0.0448,-0.0449,0,0,-0.0082,-0.0103,-0.011,-0.013,-0.0161,-0.0184,-0.0186,-0.0223,-0.0239,-0.0255,-0.0285,-0.0298,-0.0332,-0.0352,-0.0367,-0.0348,-0.0372,-0.0354,-0.0332,-0.0336,-0.0332,-0.033,-0.0323,-0.032,-0.0353,-0.0353,-0.0353,0,-0.0058,-0.008,-0.0111,-0.0123,-0.0137,-0.0171,-0.0178,-0.0196,-0.0233,-0.0242,-0.0253,-0.0294,-0.0318,-0.0333,-0.0328,-0.0339,-0.0342,-0.0351,-0.033,-0.0328,-0.0325,-0.032,-0.0317,-0.0351,-0.0351,-0.0351,-0.0351,0,-0.0049,-0.0063,-0.0065,-0.0097,-0.0111,-0.012,-0.0153,-0.0163,-0.0183,-0.0206,-0.0221,-0.025,-0.0276,-0.0281,-0.0302,-0.0299,-0.0305,-0.0322,-0.0343,-0.0319,-0.0314,-0.0312,-0.0347,-0.0348,-0.0349,-0.0349,0,0,-0.0005,-0.0051,-0.0052,-0.0066,-0.01,-0.0113,-0.0122,-0.0146,-0.0154,-0.0177,-0.0187,-0.0212,-0.0228,-0.0244,-0.0267,-0.027,-0.0253,-0.0287,-0.0289,-0.028,-0.0252,-0.0239,-0.0236,-0.0267,-0.0267,-0.0267,-0.0249,0,0.0011,-0.0008,-0.0035,-0.0045,-0.0059,-0.009,-0.0098,-0.012,-0.0141,-0.0155,-0.0178,-0.0195,-0.0214,-0.0224,-0.0228,-0.0254,-0.0248,-0.0255,-0.0278,-0.0278,-0.027,-0.0234,-0.0222,-0.0204,-0.0247,-0.0247,-0.0247,0,0.0027,0.0008,-0.0004,-0.0035,-0.0041,-0.0049,-0.0072,-0.0085,-0.011,-0.0124,-0.0141,-0.0164,-0.0176,-0.0193,-0.0211,-0.0215,-0.0225,-0.0238,-0.0239,-0.0244,-0.0262,-0.0239,-0.0199,-0.0197,-0.0244,-0.0244,-0.0245,0,0.0059,0.0031,0.0021,0.001,-0.0027,-0.0031,-0.0047,-0.0072,-0.0084,-0.0104,-0.0112,-0.0133,-0.0145,-0.0161,-0.019,-0.0199,-0.0204,-0.0223,-0.0217,-0.0216,-0.0219,-0.0219,-0.0181,-0.0222,-0.0222,-0.0222,-0.0222,0,0.0079,0.0073,0.0035,0.0029,0.0022,-0.0008,-0.0014,-0.0032,-0.0054,-0.0065,-0.0092,-0.0102,-0.0138,-0.0152,-0.0174,-0.0185,-0.019,-0.0202,-0.0209,-0.0201,-0.0199,-0.021,-0.0212,-0.0222,-0.0222,-0.0222,-0.0222,0,0.0113,0.0087,0.0075,0.0042,0.0034,0.0031,0.0003,-0.0005,-0.0025,-0.0038,-0.0042,-0.0075,-0.0092,-0.0121,-0.0147,-0.0162,-0.0169,-0.0178,-0.016,-0.0164,-0.0156,-0.0157,-0.0126,-0.0123,-0.0164,-0.0164,-0.0163,0,0.0126,0.0121,0.009,0.0082,0.0068,0.0055,0.0043,0.0015,0.0004,-0.0023,-0.0027,-0.0045,-0.0062,-0.0088,-0.0115,-0.0134,-0.0145,-0.0133,-0.0149,-0.014,-0.0146,-0.0146,-0.0147,-0.013,-0.0129,-0.0129,-0.0129,0,0.0153,0.0142,0.0127,0.0109,0.0097,0.008,0.0063,0.0058,0.0025,0.0015,-0.0002,-0.0015,-0.004,-0.0058,-0.0081,-0.0098,-0.0119,-0.0122,-0.0122,-0.0116,-0.0105,-0.0111,-0.0152,-0.0124,-0.0124,-0.0125,-0.0125,-0.0125,0.0176,0.0171,0.0149,0.0134,0.0119,0.0104,0.0096,0.0076,0.0062,0.004,0.0025,0.0009,-0.0014,-0.0046,-0.0061,-0.0074,-0.0084,-0.0083,-0.0083,-0.0083,-0.008,-0.0101,-0.0078,-0.0078,-0.0078,-0.0079,-0.0079,0,0.02,0.0186,0.0173,0.015,0.0139,0.0124,0.0104,0.0095,0.0083,0.0064,0.0049,0.0031,0.0014,-0.0012,-0.0032,-0.0037,-0.0047,-0.0041,-0.0042,-0.0045,-0.007,-0.0069,-0.0033,-0.0033,-0.0033,-0.0033,-0.0033,-0.0033,0.0212,0.0203,0.0189,0.0173,0.0158,0.0144,0.0134,0.012,0.0105,0.0087,0.0073,0.0057,0.0036,0.0015,-0.0001,-0.0008,-0.0015,-0.0006,-0.0016,-0.0039,-0.0044,-0.0048,-0.0047,-0.0007,-0.0007,0.0009,0.001,0.001]}]]